User: anonymous   Login
Location: Piotrkow Trybunalski
(51.4000°N, 19.6830°E)
Time: 01:51:10
(UTC+02:00)
Language:

Vanguard 2 - Orbit

View from above orbital plane
View from above orbital plane
View from above satellite
View from above satellite

Ground track
Ground track

The orbit data is extracted from the following two-line orbital elements,

1 00011U 59001A   24103.55683071  .00002908  00000-0  15242-2 0  9997
2 00011  32.8725 211.6749 1456903 216.1738 133.1119 11.88012614440703
Epoch (UTC): 12 April 2024 13:21:50
Eccentricity: 0.1456903
inclination: 32.8725°
perigee height: 553 km
apogee height: 2917 km
right ascension of ascending node: 211.6749°
argument of perigee: 216.1738°
revolutions per day: 11.88012614
mean anomaly at epoch: 133.1119°
orbit number at epoch: 44070

The dashed part of the orbit path shows where the satellite is in the earth's shadow,  

DLR